Weather History for Clarksville, TN

Change the Weather History Date:

Tuesday, December 3, 2013

  Actual Average Record
Temperature  
Mean Temperature 55 °F -  
Max Temperature 63 °F - 76 °F (2012)
Min Temperature 46 °F - 10 °F (1979)
Degree Days  
Heating Degree Days 10    
Month to date heating degree days 38  
Since 1 July heating degree days 871  
Cooling Degree Days 0    
Month to date cooling degree days 0  
Growing Degree Days 5 (Base 50)    
Moisture  
Dew Point 50 °F    
Average Humidity 84    
Maximum Humidity 100    
Minimum Humidity 67    
Precipitation  
Precipitation 0.00 in - 1.32 in (1983)
Month to date precipitation 0.00  
Sea Level Pressure  
Sea Level Pressure 29.77 in    
Wind  
Wind Speed 6 mph (SE)    
Max Wind Speed 12 mph    
Max Gust Speed 16 mph    
Visibility 7 miles    
Events      
T = Trace of Precipitation, MM = Missing Value Source: NWS Daily Summary

Daily Weather History Graph

Daily Weather History Graph

Search for Another Location

Airport:

Trip Planner

Search our weather history database for the weather conditions in past years. The results will help you decide how hot, cold, wet, or windy it might be!

Date:

Astronomy

Dec. 03, 2013 Rise Set
Actual Time 6:45 AM CST 4:33 PM CST
Civil Twilight 6:16 AM CST 5:02 PM CST
Nautical Twilight 5:44 AM CST 5:34 PM CST
Astronomical Twilight 5:13 AM CST 6:05 PM CST
Moon 7:14 AM CST (12/3) 5:36 PM CST (12/3)
Length of Visible Light 10h 45m
Length of Day
9h 48m
New Moon, 1% of the Moon is Illuminated
Dec 3
New Moon
Dec 9
First Quarter
Dec 17
Full
Dec 25
Last Quarter
Jan 1
New

Hourly Weather History & Observations

Time (CST) Temp. Dew Point Humidity Pressure Visibility Wind Dir Wind Speed Gust Speed Precip Events Conditions
12:52 AM 48.0 °F 46.9 °F 96% 29.76 in 2.5 mi SSE 5.8 mph - N/A   Clear
1:01 AM 48.2 °F 46.4 °F 93% 29.76 in 3.0 mi SE 5.8 mph - N/A   Clear
1:10 AM 48.2 °F 46.4 °F 93% 29.76 in 2.5 mi SE 5.8 mph - N/A   Clear
1:52 AM 48.0 °F 46.9 °F 96% 29.76 in 2.0 mi SSE 5.8 mph - N/A   Scattered Clouds
2:02 AM 50.0 °F 48.2 °F 94% 29.76 in 3.0 mi SE 5.8 mph - N/A   Mostly Cloudy
2:34 AM 51.8 °F 48.2 °F 88% 29.77 in 3.0 mi SSE 3.5 mph - N/A   Overcast
2:52 AM 50.0 °F 48.9 °F 96% 29.77 in 2.5 mi Calm Calm - N/A   Overcast
3:06 AM 48.2 °F 48.2 °F 100% 29.77 in 1.0 mi Calm Calm - N/A   Mostly Cloudy
3:14 AM 48.2 °F 48.2 °F 100% 29.77 in 0.8 mi East 3.5 mph - N/A   Mostly Cloudy
3:24 AM 48.2 °F 48.2 °F 100% 29.77 in 1.5 mi SE 4.6 mph - N/A   Mostly Cloudy
3:37 AM 51.8 °F 48.2 °F 88% 29.77 in 3.0 mi SSE 3.5 mph - N/A   Overcast
3:52 AM 51.1 °F 50.0 °F 96% 29.77 in 3.0 mi SSE 3.5 mph - N/A   Overcast
4:52 AM 52.0 °F 50.0 °F 93% 29.76 in 3.0 mi SE 6.9 mph - N/A   Overcast
5:52 AM 52.0 °F 50.0 °F 93% 29.76 in 3.0 mi SE 4.6 mph - N/A   Overcast
6:52 AM 52.0 °F 50.0 °F 93% 29.78 in 4.0 mi SE 4.6 mph - N/A   Overcast
7:52 AM 53.1 °F 51.1 °F 93% 29.80 in 5.0 mi SE 8.1 mph - N/A   Overcast
8:16 AM 53.6 °F 51.8 °F 94% 29.80 in 6.0 mi ESE 5.8 mph - N/A   Overcast
8:52 AM 55.0 °F 51.1 °F 86% 29.80 in 8.0 mi ESE 3.5 mph - N/A   Overcast
9:52 AM 55.9 °F 51.1 °F 84% 29.81 in 10.0 mi SSE 4.6 mph - N/A   Overcast
10:52 AM 57.0 °F 51.1 °F 81% 29.80 in 10.0 mi SE 9.2 mph - N/A   Overcast
11:52 AM 59.0 °F 51.1 °F 75% 29.77 in 10.0 mi ESE 6.9 mph - N/A   Overcast
12:52 PM 60.1 °F 51.1 °F 72% 29.74 in 10.0 mi SE 8.1 mph - N/A   Overcast
1:23 PM 60.8 °F 51.8 °F 72% 29.74 in 10.0 mi SSE 6.9 mph - N/A   Overcast
1:31 PM 60.8 °F 51.8 °F 72% 29.74 in 10.0 mi South 8.1 mph - N/A   Overcast
1:52 PM 61.0 °F 51.1 °F 70% 29.73 in 10.0 mi SSE 6.9 mph - N/A   Overcast
2:52 PM 62.1 °F 51.1 °F 67% 29.73 in 10.0 mi SSE 5.8 mph - N/A   Mostly Cloudy
3:52 PM 60.1 °F 51.1 °F 72% 29.73 in 10.0 mi SE 6.9 mph - N/A   Mostly Cloudy
4:52 PM 55.9 °F 50.0 °F 80% 29.74 in 10.0 mi SSE 8.1 mph - N/A   Scattered Clouds
5:52 PM 57.9 °F 51.1 °F 78% 29.75 in 10.0 mi South 5.8 mph - N/A   Mostly Cloudy
6:03 PM 57.2 °F 51.8 °F 82% 29.75 in 10.0 mi SSE 3.5 mph - N/A   Overcast
6:27 PM 55.4 °F 50.0 °F 82% 29.75 in 10.0 mi SSE 5.8 mph - N/A   Mostly Cloudy
6:41 PM 55.4 °F 51.8 °F 88% 29.76 in 10.0 mi SE 4.6 mph - N/A   Mostly Cloudy
6:52 PM 55.9 °F 52.0 °F 87% 29.76 in 10.0 mi SE 5.8 mph - N/A   Overcast
7:52 PM 54.0 °F 51.1 °F 90% 29.78 in 10.0 mi SE 3.5 mph - N/A   Mostly Cloudy
8:13 PM 55.4 °F 51.8 °F 88% 29.78 in 9.0 mi SSE 3.5 mph - N/A   Overcast
8:52 PM 55.9 °F 53.1 °F 90% 29.78 in 9.0 mi Calm Calm - N/A   Overcast
9:52 PM 57.0 °F 53.1 °F 87% 29.78 in 8.0 mi SSE 5.8 mph - N/A   Overcast
10:52 PM 57.0 °F 54.0 °F 89% 29.77 in 8.0 mi SSE 5.8 mph - N/A   Overcast
11:52 PM 57.9 °F 54.0 °F 87% 29.77 in 8.0 mi SSE 6.9 mph - N/A   Overcast